Pittsburgh, PA

4:29 PM EDT on May 24, 2018 (GMT -0400)
Pittsburgh International

Weather History for KPIT - October, 2014

Change the Weather History Date:

Saturday, October 18, 2014

  Actual Average Record
Temperature  
Mean Temperature 53 °F 52 °F  
Max Temperature 61 °F 62 °F 83 °F (1938)
Min Temperature 44 °F 42 °F 26 °F (1976)
Degree Days  
Heating Degree Days 12 13  
Month to date heating degree days 158 192  
Since 1 July heating degree days 271 306  
Cooling Degree Days 0 0  
Month to date cooling degree days 4 6  
Year to date cooling degree days 700 734  
Moisture  
Dew Point 43 °F    
Average Humidity 77    
Maximum Humidity 93    
Minimum Humidity 60    
Precipitation  
Precipitation 0.05 in 0.07 in 1.66 in (1927)
Month to date precipitation 1.58 1.29  
Year to date precipitation 31.93 31.11  
Snow  
Snow 0.00 in 0.10 in 1.80 in (1972)
Month to date snowfall T 0.1  
Since 1 July snowfall T 0.1  
Snow Depth 0.00 in    
Sea Level Pressure  
Sea Level Pressure 29.84 in    
Wind  
Wind Speed 15 mph (WNW)    
Max Wind Speed 24 mph    
Max Gust Speed 33 mph    
Visibility 10 miles    
Events Rain    
T = Trace of Precipitation, MM = Missing Value Source: NWS Daily Summary

Daily Weather History Graph

Daily Weather History Graph

Search for Another Location

Airport or City:

Astronomy

Oct. 18, 2014 Rise Set
Actual Time 7:35 AM EDT 6:36 PM EDT
Civil Twilight 7:07 AM EDT 7:03 PM EDT
Nautical Twilight 6:35 AM EDT 7:35 PM EDT
Astronomical Twilight 6:04 AM EDT 8:07 PM EDT
Moon 2:31 AM EDT (10/18) 3:56 PM EDT (10/18)
Length of Visible Light 11h 56m
Length of Day
11h 01m
Waning Crescent, 24% of the Moon is Illuminated
Oct 18
Waning Crescent
Oct 23
New
Oct 30
First Quarter
Nov 6
Full
Nov 14
Last Quarter

Hourly Weather History & Observations

Time (EDT) Temp. Windchill Dew Point Humidity Pressure Visibility Wind Dir Wind Speed Gust Speed Precip Events Conditions
12:51 AM 61.0 °F - 46.9 °F 60% 29.66 in 10.0 mi West 13.8 mph - N/A   Overcast
1:51 AM 59.0 °F - 46.9 °F 64% 29.67 in 10.0 mi West 12.7 mph - N/A   Overcast
2:51 AM 57.0 °F - 46.0 °F 67% 29.68 in 10.0 mi West 10.4 mph - N/A   Overcast
3:51 AM 54.0 °F - 48.0 °F 80% 29.69 in 10.0 mi WSW 10.4 mph - 0.00 in   Overcast
4:51 AM 53.1 °F - 48.0 °F 83% 29.69 in 10.0 mi WSW 8.1 mph - N/A   Overcast
5:51 AM 54.0 °F - 46.9 °F 77% 29.70 in 10.0 mi WSW 9.2 mph - 0.00 in   Overcast
6:51 AM 53.1 °F - 46.0 °F 77% 29.71 in 10.0 mi West 9.2 mph - N/A   Overcast
7:51 AM 50.0 °F - 48.0 °F 93% 29.74 in 10.0 mi WNW 11.5 mph - 0.05 in   Overcast
8:51 AM 48.9 °F - 43.0 °F 80% 29.77 in 10.0 mi WNW 16.1 mph 20.7 mph N/A   Mostly Cloudy
9:51 AM 50.0 °F - 42.1 °F 74% 29.79 in 10.0 mi WNW 15.0 mph 25.3 mph N/A   Mostly Cloudy
10:10 AM 48.9 °F - 41.0 °F 74% 29.78 in 10.0 mi WNW 13.8 mph - N/A   Overcast
10:51 AM 50.0 °F - 41.0 °F 71% 29.81 in 10.0 mi WNW 18.4 mph 25.3 mph N/A   Overcast
11:51 AM 50.0 °F - 39.9 °F 68% 29.82 in 10.0 mi WNW 18.4 mph - N/A   Mostly Cloudy
12:18 PM 51.1 °F - 39.9 °F 66% 29.81 in 10.0 mi WNW 13.8 mph 23.0 mph N/A   Mostly Cloudy
12:51 PM 52.0 °F - 39.0 °F 61% 29.83 in 10.0 mi West 19.6 mph 27.6 mph N/A   Mostly Cloudy
1:51 PM 51.1 °F - 39.0 °F 63% 29.83 in 10.0 mi West 17.3 mph 25.3 mph 0.00 in Rain Light Rain
2:51 PM 51.1 °F - 37.9 °F 61% 29.86 in 10.0 mi NW 20.7 mph 25.3 mph 0.00 in Rain Light Rain
3:51 PM 48.9 °F - 42.1 °F 77% 29.88 in 10.0 mi WNW 15.0 mph - 0.00 in   Overcast
4:51 PM 48.0 °F - 42.1 °F 80% 29.90 in 8.0 mi NW 16.1 mph - 0.00 in Rain Light Rain
5:51 PM 48.0 °F - 41.0 °F 77% 29.92 in 10.0 mi NW 15.0 mph 24.2 mph 0.00 in   Overcast
6:51 PM 46.9 °F - 39.9 °F 77% 29.95 in 10.0 mi NW 18.4 mph 24.2 mph 0.00 in   Overcast
7:24 PM 46.9 °F - 39.9 °F 77% 29.92 in 10.0 mi NW 15.0 mph 24.2 mph N/A   Overcast
7:44 PM 46.0 °F 40.2 °F 41.0 °F 83% 29.93 in 10.0 mi WNW 12.7 mph 21.9 mph N/A   Overcast
7:51 PM 46.0 °F 39.3 °F 41.0 °F 83% 29.97 in 10.0 mi WNW 16.1 mph - N/A   Overcast
8:35 PM 46.0 °F 39.9 °F 41.0 °F 83% 29.95 in 10.0 mi NW 13.8 mph - N/A   Overcast
8:51 PM 46.9 °F - 41.0 °F 80% 29.99 in 10.0 mi NW 12.7 mph - N/A   Overcast
9:51 PM 46.0 °F 39.3 °F 41.0 °F 83% 30.00 in 10.0 mi NW 16.1 mph - N/A   Overcast
10:51 PM 46.0 °F 39.3 °F 41.0 °F 83% 30.01 in 10.0 mi NNW 16.1 mph 24.2 mph N/A   Overcast
11:51 PM 46.0 °F 39.0 °F 39.0 °F 76% 30.02 in 10.0 mi NNW 17.3 mph - N/A   Mostly Cloudy